Overview Statistics Trail Chart Weather Telemetry Raw packets
 

This is the latest recevied weather packets stored in our database for station/object KB1WCR. If no packets are shown the sender has not sent any weather packets the latest 10 day(s).

<< 18 19 20 21 22 23 24 >>
Time Temp. Humidity Pressure Rain* Wind** Luminosity Snow
1788298649 19.44° C 93% 1018.8 hPa 0 mm - 97 W/m² -
1788298349 19.44° C 93% 1018.7 hPa 0 mm - 83 W/m² -
1788298049 18.89° C 93% 1018.7 hPa 0 mm - 70 W/m² -
1788297745 19.44° C 92% 1018.6 hPa 0 mm - 58 W/m² -
1788297440 19.44° C 92% 1018.6 hPa 0 mm - 76 W/m² -
1788297137 19.44° C 92% 1018.6 hPa 0 mm - 112 W/m² -
1788296832 19.44° C 92% 1018.5 hPa 0 mm - 103 W/m² -
1788296528 20° C 91% 1018.5 hPa 0 mm - 121 W/m² -
1788296223 20° C 90% 1018.3 hPa 0 mm - 128 W/m² -
1788295918 20° C 91% 1018.5 hPa 0 mm - 168 W/m² -
1788295613 20° C 90% 1018.5 hPa 0 mm - 167 W/m² -
1788295309 20° C 90% 1018.5 hPa 0 mm - 173 W/m² -
1788295009 20° C 90% 1018.3 hPa 0 mm - 156 W/m² -
1788294704 20° C 90% 1018.4 hPa 0 mm - 210 W/m² -
1788294403 20.56° C 89% 1018.2 hPa 0 mm - 160 W/m² -
1788294099 20.56° C 89% 1018.2 hPa 0 mm - 193 W/m² -
1788293795 20.56° C 88% 1018.1 hPa 0 mm - 198 W/m² -
1788293494 21.11° C 87% 1018.1 hPa 0 mm - 282 W/m² -
1788293188 21.67° C 86% 1018.1 hPa 0 mm - 510 W/m² -
1788292883 21.11° C 87% 1018.3 hPa 0 mm - 306 W/m² -
1788292583 21.67° C 86% 1018.1 hPa 0 mm - 394 W/m² -
1788292275 21.11° C 88% 1018.2 hPa 0 mm - 562 W/m² -
1788291970 20.56° C 86% 1018.2 hPa 0 mm - 414 W/m² -
1788291666 20.56° C 87% 1018.1 hPa 0 mm - 292 W/m² -
1788291361 20.56° C 86% 1018.3 hPa 0 mm - 271 W/m² -

* Rain latest hour (hover to see other rain measurements)
** Current wind speed in m/s (hover to see current wind gust speed)